Find OneWeb SL0286

NORAD ID: 49076 Int'l Des: 2021-075 Owner: ONEWEBN Country: UK Constellation: oneweb operational
LEOCIRCULARPOLARONEWEB_TYPE

現在のビュー

3D地球を読み込み中...

About OneWeb SL0286

OneWeb SL0286 (NORAD 49076) is a oneweb constellation satellite launched Aug 21, 2021 by ONEWEBN of UK. It operates in LEO, CIRCULAR, POLAR, ONEWEB_TYPE orbit with a mass of 148.00 kg.

OneWeb SL0286について

説明を読み込み中...

次回通過

Passes for default location (London). Set your location on the main map for personalized predictions.

高度履歴

Loading altitude history...

軌道要素

1 49076U 21075B 26169.03342641 .00000436 00000-0 11759-2 0 9996
2 49076 87.8938 350.5102 0001984 86.8623 273.2733 13.12443226234679
Epoch: Jun 18, 2026 • Age: 12 hours

現在のステータス

高度 1215.6 km
速度 7.25 km/s
衛星直下点 14.50°N, 73.79°E
打ち上げ日 Aug 21, 2021
運用期間 4.8 years
タイプ internet

技術仕様

分類 Payload
質量 148.00 kg
乾燥質量 140.00 kg
総質量 148.00 kg
長さ 1.30 m
直径 1.00 m
スパン 5.00 m
形状 Trapezoid+2 pan
製造者 ONEWUS
バスタイプ ARROW
フェーズステータス In Orbit
所有者/国 ONEWEBN/UK

Most Searched